This is the latest recevied weather packets stored in our database for station/object AA4XD. If no packets are shown the sender has not sent any weather packets the latest 10 day(s).
| Time | Temp. | Humidity | Pressure | Rain* | Wind** | Luminosity | Snow |
|---|---|---|---|---|---|---|---|
| 1777944745 | 20.56° C | 63% | 1014.8 hPa | 0 mm | - | 0 W/m² | - |
| 1777944443 | 20.56° C | 63% | 1014.5 hPa | 0 mm | - | 0 W/m² | - |
| 1777944140 | 21.11° C | 63% | 1014.5 hPa | 0 mm | - | 0 W/m² | - |
| 1777943836 | 21.11° C | 62% | 1014.7 hPa | 0 mm | - | 0 W/m² | - |
| 1777943534 | 21.11° C | 60% | 1014.5 hPa | 0 mm | - | 0 W/m² | - |
| 1777943228 | 21.11° C | 60% | 1014.5 hPa | 0 mm | - | 0 W/m² | - |
| 1777942926 | 21.11° C | 59% | 1014.3 hPa | 0 mm | - | 0 W/m² | - |
| 1777942622 | 21.11° C | 59% | 1014.3 hPa | 0 mm | - | 0 W/m² | - |
| 1777942319 | 21.67° C | 59% | 1014.1 hPa | 0 mm | - | 0 W/m² | - |
| 1777942016 | 21.67° C | 57% | 1014.1 hPa | 0 mm | - | 0 W/m² | - |
| 1777941712 | 21.67° C | 57% | 1014 hPa | 0 mm | - | 0 W/m² | - |
| 1777941410 | 22.22° C | 57% | 1013.8 hPa | 0 mm | - | 0 W/m² | - |
| 1777941107 | 22.22° C | 55% | 1014 hPa | 0 mm | - | 0 W/m² | - |
| 1777940803 | 22.22° C | 57% | 1014.1 hPa | 0 mm | - | 0 W/m² | - |
| 1777940501 | 22.78° C | 54% | 1013.8 hPa | 0 mm | - | 0 W/m² | - |
| 1777940198 | 22.78° C | 54% | 1013.7 hPa | 0 mm | - | 1 W/m² | - |
| 1777939896 | 22.78° C | 53% | 1013.4 hPa | 0 mm | - | 3 W/m² | - |
| 1777939593 | 23.33° C | 52% | 1013.5 hPa | 0 mm | - | 5 W/m² | - |
| 1777939291 | 23.33° C | 53% | 1013.6 hPa | 0 mm | - | 8 W/m² | - |
| 1777938986 | 23.89° C | 53% | 1013.2 hPa | 0 mm | - | 12 W/m² | - |
| 1777938683 | 23.89° C | 51% | 1013.4 hPa | 0 mm | - | 15 W/m² | - |
| 1777938380 | 24.44° C | 51% | 1013.4 hPa | 0 mm | - | 19 W/m² | - |
| 1777938078 | 24.44° C | 50% | 1013.3 hPa | 0 mm | - | 22 W/m² | - |
| 1777937773 | 25° C | 49% | 1013.4 hPa | 0 mm | - | 25 W/m² | - |
| 1777937470 | 25° C | 49% | 1013.2 hPa | 0 mm | - | 28 W/m² | - |
* Rain latest hour (hover to see other rain measurements)
** Current wind speed in m/s (hover to see current wind gust speed)